Appleton, WI

3:24 PM CST on December 09, 2019 (GMT -0600)
Outagamie County Regional

Weather History for KATW - October, 2019

Change the Weather History Date:

Sunday, October 13, 2019

  Actual Average Record
Temperature  
Mean Temperature 37 °F -  
Max Temperature 41 °F 59 °F 82 °F (1975)
Min Temperature 33 °F 39 °F 21 °F (1988)
Degree Days  
Heating Degree Days 28    
Moisture  
Dew Point 30 °F    
Average Humidity 78    
Maximum Humidity 93    
Minimum Humidity 57    
Precipitation  
Precipitation 0.00 in - - ()
Sea Level Pressure  
Sea Level Pressure 29.73 in    
Wind  
Wind Speed 11 mph ()    
Max Wind Speed 16 mph    
Max Gust Speed 23 mph    
Visibility 9.6 miles    
Events Rain    
Averages and records for this station are not official NWS values.
T = Trace of Precipitation, MM = Missing Value Source: Averaged Metar Reports

Daily Weather History Graph

Daily Weather History Graph

Search for Another Location

Airport or City:

Astronomy

Oct. 13, 2019 Rise Set
Actual Time 7:06 AM CDT 6:13 PM CDT
Civil Twilight 6:37 AM CDT 6:42 PM CDT
Nautical Twilight 6:03 AM CDT 7:16 PM CDT
Astronomical Twilight 5:29 AM CDT 7:49 PM CDT
Moon 6:38 PM CDT (10/13) 6:36 AM CDT (10/13)
Length of Visible Light 12h 05m
Length of Day
11h 07m
Full, 100% of the Moon is Illuminated
Oct 13
Full
Oct 13
Full
Oct 21
Last Quarter
Oct 27
New
Nov 4
First Quarter

Hourly Weather History & Observations

Time (CDT) Temp. Windchill Dew Point Humidity Pressure Visibility Wind Dir Wind Speed Gust Speed Precip Events Conditions
12:15 AM 35.6 °F 25.9 °F 30.2 °F 81% 29.68 in 10.0 mi SW 16.1 mph - N/A   Overcast
12:55 AM 35.6 °F 26.2 °F 30.2 °F 81% 29.67 in 10.0 mi SW 15.0 mph - N/A   Overcast
1:15 AM 35.6 °F 26.6 °F 30.2 °F 81% 29.67 in 10.0 mi SW 13.8 mph - N/A   Overcast
1:35 AM 35.6 °F 27.1 °F 30.2 °F 81% 29.67 in 10.0 mi SW 12.7 mph - N/A   Overcast
1:55 AM 35.6 °F 25.9 °F 30.2 °F 81% 29.68 in 10.0 mi SW 16.1 mph 21.9 mph N/A   Overcast
2:15 AM 35.6 °F 25.9 °F 30.2 °F 81% 29.68 in 10.0 mi SW 16.1 mph - N/A   Overcast
2:35 AM 35.6 °F 26.6 °F 28.4 °F 75% 29.68 in 10.0 mi SW 13.8 mph 19.6 mph N/A   Overcast
2:55 AM 35.6 °F 27.1 °F 28.4 °F 75% 29.68 in 10.0 mi SW 12.7 mph - N/A   Overcast
3:15 AM 35.6 °F 27.5 °F 28.4 °F 75% 29.68 in 10.0 mi SSW 11.5 mph - N/A   Overcast
3:35 AM 35.6 °F 27.5 °F 28.4 °F 75% 29.68 in 10.0 mi SW 11.5 mph 18.4 mph N/A   Overcast
3:55 AM 35.6 °F 27.1 °F 28.4 °F 75% 29.68 in 10.0 mi SW 12.7 mph 17.3 mph N/A   Overcast
4:15 AM 35.6 °F 27.5 °F 28.4 °F 75% 29.69 in 10.0 mi SSW 11.5 mph - N/A   Overcast
4:35 AM 35.6 °F 29.2 °F 28.4 °F 75% 29.69 in 10.0 mi SW 8.1 mph - N/A   Overcast
4:55 AM 35.6 °F 27.1 °F 28.4 °F 75% 29.68 in 10.0 mi SW 12.7 mph - N/A   Overcast
5:15 AM 35.6 °F 28.6 °F 28.4 °F 75% 29.69 in 10.0 mi WSW 9.2 mph - N/A   Overcast
5:22 AM 35.6 °F 28.6 °F 26.6 °F 70% 29.68 in 10.0 mi West 9.2 mph - N/A   Overcast
5:45 AM 35.6 °F 26.6 °F 26.6 °F 70% 29.69 in 10.0 mi SW 13.8 mph - N/A   Overcast
6:45 AM 37.4 °F 30.3 °F 26.6 °F 65% 29.69 in 10.0 mi SW 10.4 mph - N/A   Overcast
7:45 AM 37.4 °F 30.8 °F 26.6 °F 65% 29.70 in 10.0 mi SW 9.2 mph - N/A   Overcast
8:45 AM 37.4 °F 29.8 °F 26.6 °F 65% 29.70 in 10.0 mi SW 11.5 mph - N/A   Overcast
9:45 AM 37.4 °F 29.3 °F 26.6 °F 65% 29.70 in 10.0 mi WSW 12.7 mph - N/A   Overcast
10:45 AM 39.2 °F 32.0 °F 28.4 °F 65% 29.71 in 10.0 mi WSW 11.5 mph - N/A   Overcast
11:45 AM 37.4 °F 28.5 °F 28.4 °F 70% 29.72 in 10.0 mi SW 15.0 mph 23.0 mph N/A Rain Light Rain
12:45 PM 39.2 °F 31.2 °F 28.4 °F 65% 29.71 in 10.0 mi SW 13.8 mph - N/A   Overcast
1:45 PM 41.0 °F 33.5 °F 26.6 °F 57% 29.72 in 10.0 mi SW 13.8 mph - N/A   Mostly Cloudy
3:20 PM 39.2 °F 30.5 °F 30.2 °F 70% 29.74 in 5.0 mi WSW 16.1 mph - N/A Rain Light Rain
3:45 PM 35.6 °F 29.9 °F 30.2 °F 81% 29.74 in 7.0 mi West 6.9 mph - N/A Rain Light Rain
4:45 PM 37.4 °F 32.1 °F 33.8 °F 87% 29.76 in 7.0 mi West 6.9 mph - N/A Rain Light Rain
5:45 PM 35.6 °F 30.7 °F 33.8 °F 93% 29.78 in 7.0 mi West 5.8 mph - N/A   Mostly Cloudy
6:45 PM 37.4 °F 30.8 °F 35.6 °F 93% 29.80 in 10.0 mi SW 9.2 mph - N/A   Mostly Cloudy
7:45 PM 35.6 °F 28.6 °F 32.0 °F 87% 29.82 in 10.0 mi WSW 9.2 mph - N/A   Scattered Clouds
8:45 PM 35.6 °F 28.6 °F 33.8 °F 93% 29.84 in 10.0 mi WSW 9.2 mph - N/A   Scattered Clouds
9:45 PM 35.6 °F 28.6 °F 33.8 °F 93% 29.85 in 10.0 mi WSW 9.2 mph - N/A   Scattered Clouds
10:45 PM 35.6 °F 28.6 °F 33.8 °F 93% 29.85 in 10.0 mi WSW 9.2 mph - N/A   Scattered Clouds
10:55 PM 33.8 °F 26.4 °F 32.0 °F 93% 29.86 in 10.0 mi WSW 9.2 mph - N/A   Clear
11:15 PM 33.8 °F 26.4 °F 32.0 °F 93% 29.86 in 10.0 mi WSW 9.2 mph - N/A   Clear
11:35 PM 33.8 °F 26.4 °F 32.0 °F 93% 29.86 in 10.0 mi WSW 9.2 mph - N/A   Clear
11:55 PM 33.8 °F 26.4 °F 32.0 °F 93% 29.86 in 10.0 mi WSW 9.2 mph - N/A   Clear